Flag for Austria Weather past 2 weeks in Waidhofen an der Ybbs, Lower Austria, Austria

Now
56 °F

Cool.


Feels Like: 56 °F
Forecast: 34 / 46 °F
Wind: 5 mph from Southwest

Location: Amstetten

Current Time: Oct 21, 2014 at 6:10:19 AM

Latest Report: Oct 21, 2014 at 5:00 AM


Visibility: N/A

Pressure: 29.96 "Hg

Humidity: 95%

Dew point: 55 °F

Location of Waidhofen an der YbbsLocation

Historic Weather in Waidhofen an der Ybbs — Graph

°F

Waidhofen an der Ybbs temperature yesterday

Maximum temperature yesterday: 66 °F (at 5:00 PM)
Minimum temperature yesterday: 48 °F (at 8:00 AM)
Average temperature yesterday: 56 °F

Past Weeks' High & Low Weather Summary

 TemperatureHumidityPressure
High72 °F (Oct 12, 3:00 PM)100% (Oct 10, 8:00 AM)30.32 "Hg (Oct 10, 8:00 AM)
Low46 °F (Oct 19, 5:00 AM)56% (Oct 14, 3:00 PM)29.73 "Hg (Oct 14, 2:00 AM)
Average57 °F90%29.97 "Hg
* Reported Oct 6 4:00 AM — Oct 21 4:00 AM, Waidhofen an der Ybbs, Weather by CustomWeather, © 2014

Note: Actual official high and low records may vary slightly from our data, if they occured in-between our weather recording intervals... More about our weather records

Advertising

Waidhofen an der Ybbs weather history for previous 24 hours

 ConditionsComfort  
Time TempWeatherWind HumidityBarometerVisibility
4:00 AM
Oct 21
57 °FFog.2 mph97%29.96 "HgN/A
3:00 AM58 °FFog.3 mph96%29.96 "HgN/A
2:00 AM58 °FCool.2 mph96%29.98 "HgN/A
1:00 AM59 °FCool.1 mph98%29.97 "HgN/A
12:00 AM60 °FSprinkles. Overcast.3 mph95%29.98 "HgN/A
11:00 PM
Oct 20
60 °FCool.5 mph96%30.01 "HgN/A
10:00 PM59 °FCool.2 mph97%30.01 "HgN/A
9:00 PM59 °FCool.1 mph94%29.99 "HgN/A
8:00 PM58 °FCool.1 mph95%30.00 "HgN/A
7:00 PM60 °FCool.1 mph92%30.01 "HgN/A
6:00 PM63 °FMild.1 mph84%30.01 "HgN/A
5:00 PM66 °FMild.2 mph74%30.01 "HgN/A
4:00 PM65 °FMild.2 mph71%30.03 "HgN/A
3:00 PM65 °FMild.1 mph70%30.04 "HgN/A
2:00 PMN/APassing clouds.18 mphN/AN/A2 mi
1:00 PM60 °FCool.1 mph82%30.11 "HgN/A
12:00 PM58 °FCool.1 mph88%30.12 "HgN/A
11:00 AM56 °FCool.1 mph92%30.14 "HgN/A
10:00 AM53 °FCool.2 mph95%30.15 "HgN/A
9:00 AM51 °FCool.1 mph97%30.16 "HgN/A
8:00 AM48 °FPartly sunny.2 mph100%30.15 "HgN/A
7:00 AM49 °FCool.1 mph99%30.15 "HgN/A
Weather by CustomWeather, © 2014

See weather overviewHow to use our weather pages